FW0220 Weather Reports


time (UTC)temp
F
wind
direction
speed
knots
gust
knots
rain 1hr
in
rain 24hr
in
rain mn
in
humidity
%
barometer
mb
20260506233311 49 10 2.6 7.0 0.00 0.38 0.38 89 1015.4
20260506232808 49 5 2.6 7.8 0.00 0.38 0.38 89 1015.4
20260506232309 49 13 2.6 7.8 0.00 0.38 0.38 89 1015.4
20260506231807 49 9 2.6 9.6 0.00 0.38 0.38 89 1015.4
20260506231308 49 11 3.5 11.3 0.00 0.38 0.38 89 1015.4
20260506230808 49 30 4.3 11.3 0.00 0.38 0.38 89 1015.2
20260506230308 49 5 4.3 10.4 0.00 0.38 0.38 89 1015.2
20260506225806 49 21 3.5 7.8 0.00 0.38 0.38 90 1015.1
20260506225307 49 19 3.5 7.0 0.00 0.38 0.38 90 1015.0
20260506224806 49 19 3.5 7.0 0.00 0.38 0.38 90 1014.9
20260506224541 49 11 3.5 9.6 0.00 0.38 0.38 90 1014.7
20260506223809 49 14 4.3 9.6 0.00 0.38 0.38 91 1014.6
20260506223309 49 21 3.5 8.7 0.00 0.38 0.38 91 1014.6
20260506222809 49 320 3.5 8.7 0.00 0.38 0.38 91 1014.5
20260506222307 49 0 3.5 7.8 0.00 0.38 0.38 92 1014.5
20260506221808 49 348 4.3 12.2 0.01 0.38 0.38 92 1014.4
20260506221306 50 28 5.2 12.2 0.01 0.38 0.38 92 1014.2
20260506220807 50 24 4.3 10.4 0.03 0.38 0.38 91 1014.0
20260506220308 50 38 5.2 10.4 0.03 0.38 0.38 91 1014.0
20260506215808 50 30 6.1 12.2 0.04 0.38 0.38 91 1013.8
20260506215309 50 12 6.1 13.0 0.04 0.38 0.38 91 1013.6
20260506214806 50 15 6.1 13.0 0.04 0.38 0.38 91 1013.6
20260506214538 50 350 6.1 12.2 0.05 0.38 0.38 92 1013.5
20260506213806 50 30 6.1 11.3 0.05 0.38 0.38 92 1013.3
20260506213307 50 336 6.1 13.0 0.05 0.38 0.38 92 1013.3
20260506212806 50 27 5.2 13.0 0.05 0.38 0.38 92 1013.2
20260506212539 51 14 5.2 13.0 0.05 0.38 0.38 91 1013.0
20260506211808 51 22 7.0 13.9 0.04 0.37 0.37 92 1012.8
20260506211307 51 9 7.8 15.6 0.04 0.37 0.37 91 1012.6
20260506211039 51 32 7.0 15.6 0.02 0.35 0.36 91 1012.4
20260506210306 52 5 7.0 13.9 0.02 0.35 0.35 91 1012.3
20260506205807 52 24 7.0 13.9 0.01 0.34 0.34 91 1012.2
20260506205308 52 29 7.0 13.9 0.01 0.34 0.34 91 1012.0
20260506204806 53 28 7.0 13.9 0.01 0.34 0.34 91 1012.1
20260506204308 53 20 6.1 12.2 0.00 0.33 0.33 90 1012.0
20260506203806 54 5 6.1 14.8 0.00 0.33 0.33 89 1011.7
20260506203539 55 5 7.0 14.8 0.00 0.33 0.33 87 1011.7
20260506202809 56 9 5.2 13.9 0.00 0.33 0.33 84 1011.6
20260506202307 60 38 2.6 13.0 0.00 0.33 0.33 82 1011.5
20260506201808 62 224 1.7 6.1 0.00 0.33 0.33 88 1011.1
20260506201304 62 210 0.9 6.1 0.00 0.33 0.33 88 1011.3
20260506200800 61 227 0.9 5.2 0.00 0.33 0.33 88 1011.3
20260506200301 61 259 0.9 4.3 0.00 0.33 0.33 88 1011.4
20260506195801 61 257 1.7 4.3 0.00 0.33 0.33 88 1011.4
20260506195301 61 257 1.7 4.3 0.00 0.33 0.33 88 1011.4
20260506194801 61 258 1.7 5.2 0.00 0.33 0.33 88 1011.5
20260506194303 61 240 1.7 5.2 0.00 0.33 0.33 88 1011.5
20260506194031 61 238 0.9 4.3 0.00 0.33 0.33 89 1011.5
20260506193531 61 238 0.9 5.2 0.00 0.33 0.33 88 1011.6
20260506192800 61 223 1.7 6.1 0.00 0.33 0.33 88 1011.7
20260506192301 61 229 1.7 6.1 0.00 0.33 0.33 88 1011.6
20260506191801 61 209 1.7 6.1 0.00 0.33 0.33 88 1011.6
20260506191300 61 213 1.7 6.1 0.00 0.33 0.33 89 1011.6
20260506191028 61 215 2.6 5.2 0.00 0.33 0.33 88 1011.6
20260506190531 61 188 2.6 8.7 0.00 0.33 0.33 88 1011.5
20260506185756 61 205 2.6 8.7 0.00 0.33 0.33 89 1011.5
20260506185258 61 207 2.6 8.7 0.00 0.33 0.33 88 1011.6
20260506185030 61 198 2.6 7.8 0.00 0.33 0.33 89 1011.7
20260506184258 61 229 2.6 6.1 0.00 0.33 0.33 89 1011.8
20260506183754 61 202 3.5 9.6 0.00 0.33 0.33 89 1011.7
20260506183255 60 226 2.6 9.6 0.00 0.33 0.33 89 1011.8
20260506182757 60 186 2.6 7.0 0.00 0.33 0.33 90 1011.8
20260506182254 60 185 1.7 6.1 0.00 0.33 0.33 90 1011.8
20260506181754 60 183 1.7 5.2 0.00 0.33 0.33 90 1011.8
20260506181255 60 183 2.6 6.1 0.01 0.33 0.33 90 1011.9
20260506180755 60 187 2.6 7.0 0.01 0.33 0.33 90 1011.8
20260506180255 60 170 4.3 7.8 0.02 0.33 0.33 90 1011.8
20260506175755 60 186 5.2 7.8 0.03 0.33 0.33 90 1011.8
20260506175255 60 192 5.2 8.7 0.03 0.33 0.33 91 1011.9
20260506174754 60 192 5.2 8.7 0.04 0.33 0.33 91 1011.8
20260506174252 60 178 5.2 8.7 0.04 0.33 0.33 91 1011.9
20260506173753 60 192 5.2 8.7 0.04 0.33 0.33 91 1011.8
20260506173526 60 182 3.5 8.7 0.05 0.33 0.33 91 1012.0
20260506172753 60 199 2.6 6.1 0.05 0.33 0.33 91 1012.1
20260506172252 60 202 2.6 6.1 0.05 0.33 0.33 91 1012.1
20260506172024 60 207 2.6 5.2 0.06 0.33 0.33 91 1012.0
20260506171254 60 209 2.6 7.8 0.05 0.32 0.32 90 1012.1
20260506170753 60 214 2.6 7.8 0.05 0.32 0.32 90 1012.2
20260506170524 60 194 1.7 6.1 0.04 0.31 0.31 90 1012.3
20260506170417 60 198 1.7 6.1 0.03 0.30 0.31 90 1012.3
20260506165523 60 192 1.7 6.1 0.04 0.30 0.30 92 1012.3
20260506164750 60 194 1.7 6.1 0.03 0.29 0.29 90 1012.2
20260506164252 60 194 1.7 6.1 0.04 0.29 0.29 90 1012.2
20260506163749 60 192 1.7 6.1 0.05 0.29 0.29 89 1012.2
20260506163251 60 237 1.7 7.8 0.05 0.28 0.28 90 1012.3
20260506162748 60 238 0.9 7.8 0.07 0.28 0.28 89 1012.3
20260506162246 60 232 0.9 5.2 0.08 0.28 0.28 89 1012.2
20260506161748 60 174 1.7 8.7 0.07 0.27 0.27 89 1012.1
20260506161247 60 170 3.5 9.6 0.08 0.27 0.27 89 1012.2
20260506160744 60 211 4.3 10.4 0.09 0.27 0.27 89 1012.2
20260506160513 60 189 5.2 10.4 0.09 0.27 0.27 89 1012.1
20260506155745 60 176 5.2 8.7 0.10 0.27 0.27 90 1012.2
20260506155240 60 165 5.2 10.4 0.09 0.26 0.26 90 1012.3
20260506154741 60 182 5.2 10.4 0.09 0.26 0.26 89 1012.3
20260506154242 59 183 3.5 8.7 0.09 0.25 0.25 89 1012.4
20260506153741 59 187 2.6 7.0 0.09 0.24 0.24 89 1012.5
20260506153240 60 263 1.7 7.0 0.08 0.23 0.23 89 1012.6
20260506152732 60 201 1.7 7.0 0.07 0.21 0.21 89 1012.6
20260506152233 60 202 3.5 8.7 0.06 0.20 0.20 89 1012.7
20260506151730 60 212 5.2 9.6 0.06 0.20 0.20 89 1012.7
20260506151232 60 192 6.1 11.3 0.06 0.19 0.19 89 1012.6
20260506150729 60 175 6.1 11.3 0.05 0.18 0.19 89 1012.5
20260506150230 60 178 6.1 10.4 0.06 0.18 0.18 89 1012.4
20260506145728 60 192 7.0 12.2 0.06 0.17 0.17 89 1012.5
20260506145231 60 181 7.8 12.2 0.06 0.17 0.17 88 1012.4
20260506144729 60 195 7.0 12.2 0.07 0.17 0.17 88 1012.1
20260506144229 60 178 7.0 11.3 0.07 0.16 0.16 88 1012.3
20260506143730 60 184 7.0 12.2 0.07 0.15 0.15 88 1012.3
20260506143224 60 172 7.0 13.9 0.06 0.14 0.15 88 1012.4
20260506142722 60 196 7.0 13.9 0.07 0.14 0.14 88 1012.5
20260506142224 60 171 6.1 9.6 0.07 0.14 0.14 89 1012.5
20260506141723 60 170 6.1 9.6 0.08 0.14 0.14 88 1012.5
20260506141222 60 167 5.2 9.6 0.08 0.13 0.14 89 1012.3
20260506140723 59 180 5.2 9.6 0.09 0.13 0.13 88 1012.4
20260506140224 59 159 5.2 7.8 0.09 0.12 0.12 88 1012.3
20260506135955 59 178 6.1 10.4 0.08 0.11 0.12 88 1012.5
20260506135455 59 176 6.1 11.3 0.09 0.11 0.11 87 1012.5
20260506134724 59 178 6.1 11.3 0.09 0.10 0.10 87 1012.7
20260506134501 59 201 5.2 10.4 0.08 0.08 0.09 86 1012.8
20260506134224 59 171 5.2 10.4 0.09 0.09 0.09 87 1012.8
20260506133851 60 193 5.2 9.6 0.08 0.08 0.08 86 1013.0
20260506132731 60 194 6.1 11.3 0.07 0.07 0.07 84 1013.0
20260506132725 60 221 5.2 11.3 0.07 0.07 0.07 85 1013.0
20260506131723 60 171 5.2 13.0 0.06 0.06 0.06 84 1013.1
20260506131222 60 165 4.3 13.0 0.05 0.05 0.05 83 1013.1
20260506130725 60 188 3.5 10.4 0.04 0.04 0.04 82 1013.3
20260506130222 61 106 3.5 10.4 0.03 0.03 0.04 81 1013.4
20260506125721 61 200 3.5 8.7 0.02 0.02 0.03 80 1013.4
20260506125222 61 178 4.3 13.0 0.02 0.02 0.02 78 1013.3
20260506124714 62 172 6.1 13.0 0.01 0.01 0.01 77 1013.2
20260506124216 62 181 6.1 11.3 0.00 0.00 0.01 76 1013.1
20260506123715 62 212 6.1 11.3 0.00 0.00 0.00 74 1013.1
20260506123216 62 165 7.0 11.3 0.00 0.00 0.00 73 1012.8
20260506122715 63 187 7.0 11.3 0.00 0.00 0.00 71 1012.8
20260506122214 63 182 7.0 12.2 0.00 0.00 0.00 70 1012.6
20260506121714 64 191 7.0 12.2 0.00 0.00 0.00 68 1012.5
20260506121214 64 184 6.1 11.3 0.00 0.00 0.00 68 1012.5
20260506120714 64 195 6.1 13.0 0.00 0.00 0.00 67 1012.7
20260506120214 64 176 5.2 13.0 0.00 0.00 0.00 67 1012.6
20260506115714 64 235 4.3 9.6 0.00 0.00 0.00 65 1012.8
20260506115216 64 197 5.2 9.6 0.00 0.00 0.00 65 1012.8
20260506115212 64 223 4.3 9.6 0.00 0.00 0.00 66 1012.8
20260506114211 64 171 4.3 9.6 0.00 0.00 0.00 64 1012.7
20260506113710 64 180 3.5 7.0 0.00 0.00 0.00 66 1012.7
20260506113213 64 178 2.6 7.0 0.00 0.00 0.00 66 1012.7
20260506112942 64 182 2.6 5.2 0.00 0.00 0.00 65 1012.7
20260506112209 64 182 2.6 6.1 0.00 0.00 0.00 64 1012.7
20260506111707 64 181 2.6 6.1 0.00 0.00 0.00 62 1012.6
20260506111208 64 181 2.6 6.1 0.00 0.00 0.00 63 1012.6
20260506110705 64 181 1.7 6.1 0.00 0.00 0.00 63 1012.4
20260506110208 65 205 0.9 5.2 0.00 0.00 0.00 62 1012.5
20260506105703 65 217 0.9 3.5 0.00 0.00 0.00 60 1012.6
20260506105204 64 272 0.9 2.6 0.00 0.00 0.00 60 1012.6
20260506104702 64 186 1.7 4.3 0.00 0.00 0.00 60 1012.4
20260506104159 65 186 1.7 4.3 0.00 0.00 0.00 60 1012.3
20260506103657 64 186 1.7 5.2 0.00 0.00 0.00 59 1012.3
20260506103158 64 186 2.6 5.2 0.00 0.00 0.00 60 1012.1
20260506102922 64 186 2.6 7.0 0.00 0.00 0.00 60 1012.0
20260506102421 64 186 3.5 7.0 0.00 0.00 0.00 59 1012.0
20260506101653 65 186 2.6 5.2 0.00 0.00 0.00 60 1012.0
20260506101153 65 186 2.6 6.1 0.00 0.00 0.00 58 1012.2
20260506100653 65 186 3.5 6.1 0.00 0.00 0.00 58 1012.1
20260506100151 65 186 3.5 6.1 0.00 0.00 0.00 58 1012.0
20260506095649 65 185 2.6 6.1 0.00 0.00 0.00 58 1011.9
20260506095150 65 184 3.5 6.1 0.00 0.00 0.00 57 1012.1
20260506094650 65 184 3.5 7.0 0.00 0.00 0.00 57 1012.2
20260506094422 65 180 3.5 7.0 0.00 0.00 0.00 56 1012.2
20260506093650 65 179 3.5 6.1 0.00 0.00 0.00 56 1012.2
20260506093148 65 177 3.5 6.1 0.00 0.00 0.00 57 1012.2
20260506092647 65 177 3.5 6.1 0.00 0.00 0.00 56 1012.2
20260506092418 65 172 3.5 5.2 0.00 0.00 0.00 57 1012.2
20260506091646 65 172 3.5 6.1 0.00 0.00 0.00 56 1012.1
20260506091147 64 171 3.5 7.0 0.00 0.00 0.00 56 1012.2
20260506090648 64 171 2.6 7.0 0.00 0.00 0.00 57 1012.2
20260506090147 64 167 2.6 4.3 0.00 0.00 0.00 58 1012.2
20260506085918 64 167 2.6 4.3 0.00 0.00 0.00 58 1012.2
20260506085807 64 167 1.7 5.2 0.00 0.00 0.00 57 1012.3
20260506084648 64 167 1.7 5.2 0.00 0.00 0.00 56 1012.4
20260506084147 64 167 1.7 3.5 0.00 0.00 0.00 56 1012.4
20260506083648 64 167 1.7 3.5 0.00 0.00 0.00 55 1012.3
20260506083147 64 167 1.7 3.5 0.00 0.00 0.00 55 1012.5
20260506082644 65 167 1.7 4.3 0.00 0.00 0.00 55 1012.5
20260506082145 65 167 1.7 4.3 0.00 0.00 0.00 53 1012.5
20260506081645 65 167 1.7 4.3 0.00 0.00 0.00 55 1012.3
20260506081418 65 167 1.7 4.3 0.00 0.00 0.00 53 1012.4
20260506080645 65 167 2.6 5.2 0.00 0.00 0.00 54 1012.4
20260506080144 65 167 3.5 5.2 0.00 0.00 0.00 55 1012.3
20260506073142 65 183 3.5 6.1 0.00 0.00 0.00 53 1012.4
20260506072640 65 183 3.5 6.1 0.00 0.00 0.00 52 1012.4
20260506072410 65 182 2.6 6.1 0.00 0.00 0.00 51 1012.5
20260506071639 66 182 2.6 6.1 0.00 0.00 0.00 52 1012.5
20260506071138 66 196 1.7 5.2 0.00 0.00 0.00 50 1012.6
20260506070638 66 188 1.7 6.1 0.00 0.00 0.00 50 1012.6
20260506070134 66 187 2.6 6.1 0.00 0.00 0.00 50 1012.6
20260506062132 66 184 1.7 5.2 0.00 0.00 0.00 49 1012.9
20260506061632 66 181 1.7 6.1 0.00 0.00 0.00 49 1012.9
20260506061404 66 193 2.6 7.8 0.00 0.00 0.00 48 1012.9
20260506060630 66 187 2.6 7.8 0.00 0.00 0.00 49 1012.9
20260506060130 66 184 1.7 6.1 0.00 0.00 0.00 49 1012.9
20260506050620 65 186 2.6 6.1 0.00 0.00 0.00 52 1013.3
20260506050117 65 187 3.5 5.2 0.00 0.00 0.00 52 1013.4
20260506045117 64 185 3.5 7.0 0.00 0.00 0.00 56 1013.3
20260506044616 64 186 2.6 7.0 0.00 0.00 0.00 56 1013.3
20260506044115 63 188 1.7 6.1 0.00 0.00 0.00 58 1013.3
20260506043616 63 200 0.9 3.5 0.00 0.00 0.00 57 1013.2
20260506043345 64 200 0.0 2.6 0.00 0.00 0.00 56 1013.2
20260506042614 64 200 0.0 0.9 0.00 0.00 0.00 56 1013.4
20260506042113 65 200 0.0 0.9 0.00 0.00 0.00 58 1013.4
20260506041614 65 200 0.0 0.0 0.00 0.00 0.00 57 1013.5
20260506041113 65 200 0.0 0.0 0.00 0.00 0.00 58 1013.4
20260506040614 65 200 0.0 0.0 0.00 0.00 0.00 58 1013.4
20260506040113 65 200 0.0 0.0 0.00 0.00 0.00 58 1013.5
20260506035842 65 200 0.0 0.0 0.00 0.00 0.00 58 1013.5
20260506035112 65 200 0.0 1.7 0.00 0.00 0.00 57 1013.6
20260506034610 65 200 0.0 1.7 0.00 0.00 0.00 57 1013.5
20260506034109 65 200 0.0 0.0 0.00 0.00 0.00 57 1013.6
20260506033610 65 200 0.0 1.7 0.00 0.00 0.00 57 1013.6
20260506033109 65 200 0.0 1.7 0.00 0.00 0.00 57 1013.5
20260506032608 66 200 0.0 0.0 0.00 0.00 0.00 57 1013.5
20260506032339 66 200 0.0 0.9 0.00 0.00 0.00 56 1013.5
20260506031839 66 200 0.0 0.9 0.00 0.00 0.00 56 1013.5
20260506031108 66 200 0.0 0.9 0.00 0.00 0.00 56 1013.5
20260506030605 66 200 0.0 0.0 0.00 0.00 0.00 56 1013.5
20260506030338 66 200 0.0 0.0 0.00 0.00 0.00 56 1013.4
20260506025835 66 200 0.0 0.0 0.00 0.00 0.00 56 1013.4
20260506025106 67 200 0.0 0.0 0.00 0.00 0.00 55 1013.5
20260506024838 67 200 0.0 0.0 0.00 0.00 0.00 55 1013.5
20260506024106 67 200 0.0 0.9 0.00 0.00 0.00 55 1013.5
20260506023604 66 200 0.0 0.9 0.00 0.00 0.00 55 1013.5
20260506023102 66 200 0.9 2.6 0.00 0.00 0.00 56 1013.4
20260506022831 66 200 0.9 2.6 0.00 0.00 0.00 56 1013.5
20260506022454 67 200 0.9 2.6 0.00 0.00 0.00 55 1013.5
20260506022342 67 200 0.9 2.6 0.00 0.00 0.00 55 1013.4
20260506021103 67 200 1.7 2.6 0.00 0.00 0.00 55 1013.4
20260506020834 67 200 1.7 2.6 0.00 0.00 0.00 54 1013.5
20260506020334 68 200 1.7 2.6 0.00 0.00 0.00 54 1013.5
20260506015601 68 200 0.9 2.6 0.00 0.00 0.00 53 1013.5
20260506015101 68 200 0.9 2.6 0.00 0.00 0.00 52 1013.5
20260506014830 69 200 0.9 2.6 0.00 0.00 0.00 52 1013.4
20260506014100 69 200 0.9 2.6 0.00 0.00 0.00 52 1013.4
20260506013604 70 200 0.9 2.6 0.00 0.00 0.00 50 1013.3
20260506013559 69 200 0.9 2.6 0.00 0.00 0.00 50 1013.4
20260506012832 70 200 0.9 2.6 0.00 0.00 0.00 50 1013.3
20260506012101 70 200 0.9 2.6 0.00 0.00 0.00 50 1013.2
20260506011558 70 200 0.9 2.6 0.00 0.00 0.00 50 1013.1
20260506011058 71 200 0.9 2.6 0.00 0.00 0.00 48 1012.9
20260506010554 71 200 0.0 2.6 0.00 0.00 0.00 47 1012.9
20260506010055 71 200 0.0 3.5 0.00 0.00 0.00 48 1012.9
20260506005556 71 200 0.0 3.5 0.00 0.00 0.00 47 1012.8
20260506005050 71 200 0.0 3.5 0.00 0.00 0.00 47 1012.7
20260506004816 71 200 0.0 3.5 0.00 0.00 0.00 47 1012.7
20260506004321 71 200 0.0 0.0 0.00 0.00 0.00 47 1012.6
20260506004042 71 200 0.0 1.7 0.00 0.00 0.00 48 1012.7
20260506003042 72 200 0.0 0.0 0.00 0.00 0.00 47 1012.7
20260506002811 72 200 0.0 0.0 0.00 0.00 0.00 46 1012.7
20260506002041 72 200 0.0 0.0 0.00 0.00 0.00 47 1012.6
20260506001812 72 200 0.0 0.0 0.00 0.00 0.00 47 1012.6
20260506001038 72 200 0.0 0.0 0.00 0.00 0.00 47 1012.5